Hourly Data Report for January 07, 2020

SATURNA ISLAND CS
BRITISH COLUMBIA
Current Station Operator: ECCC - MSC

48°47'02.067" N
123°02'41.082" W
24.40 m
1017101
71473
WEZ

Download Data

Hourly Data (January 2020)
Hourly Data Report for January 7, 2020
TIME
LST
Temp Definition
°C
Dew Point Definition
°C
Rel Hum Definition
%
Precip. Amount Definition
mm

Wind Dir Definition
10's deg

Wind Spd Definition
km/h
Visibility Definition
km
Stn Press Definition
kPa
Hmdx Definition


Wind Chill Definition


Weather Definition


00:00 6.7 6.3 98 2.0 7 12   101.11     LegendNANA
01:00 7.7 7.4 98 2.6 16 6   100.96     LegendNANA
02:00 8.0 7.7 98 2.0 23 17   100.88     LegendNANA
03:00 8.7 8.4 98 0.8 21 23   100.88     LegendNANA
04:00 9.2 8.9 98 1.8 19 34   100.78     LegendNANA
05:00 9.8 8.7 93 0.0 17 37   100.74     LegendNANA
06:00 9.5 8.7 95 0.2 17 39   100.67     LegendNANA
07:00 9.5 8.7 95 0.0 17 39   100.59     LegendNANA
08:00 9.4 8.6 94 0.4 16 30   100.54     LegendNANA
09:00 9.7 8.5 92 0.0 16 39   100.47     LegendNANA
10:00 9.7 8.2 91 0.0 17 46   100.39     LegendNANA
11:00 10.1 8.3 88 0.0 17 30   100.31     LegendNANA
12:00 10.2 8.2 87 0.0 17 39   100.18     LegendNANA
13:00 9.7 8.3 91 0.8 18 39   100.10     LegendNANA
14:00 9.5 8.5 93 1.4 16 36   100.01     LegendNANA
15:00 9.5 8.6 94 0.2 16 31   99.95     LegendNANA
16:00 9.7 8.5 92 0.0 18 33   99.92     LegendNANA
17:00 9.2 8.3 94 0.4 18 30   99.87     LegendNANA
18:00 8.9 8.2 96 0.2 20 34   99.86     LegendNANA
19:00 8.3 7.6 96 0.2 22 36   99.82     LegendNANA
20:00 8.2 7.5 95 0.0 23 28   99.88     LegendNANA
21:00 8.1 6.5 90 0.0 24 20   99.91     LegendNANA
22:00 7.5 5.0 84 0.0 24 15   99.99     LegendNANA
23:00 7.3 4.1 80 0.0 25 13   100.09     LegendNANA

Notes on Data Quality.

Legend

  • E = Estimated
  • M = Missing
  • NA = Not Available*
  • [empty] = Indicates an unobserved value
Date modified: